West Palm Beach, FL

12:26 AM EST on November 19, 2019 (GMT -0500)
Palm Beach International

Weather History for KPBI - July, 2019

Change the Weather History Date:

Thursday, July 18, 2019

  Actual Average Record
Temperature  
Mean Temperature 86 °F 83 °F  
Max Temperature 89 °F 90 °F 98 °F (1981)
Min Temperature 82 °F 76 °F 64 °F (1940)
Degree Days  
Heating Degree Days 0 0  
Month to date heating degree days 0 0  
Since 1 June heating degree days 0 0  
Since 1 July heating degree days 0 0  
Cooling Degree Days 21 18  
Month to date cooling degree days 354 313  
Year to date cooling degree days 2326 1912  
Since 1 June cooling degree days 925 803  
Growing Degree Days 36 (Base 50)    
Moisture  
Dew Point 74 °F    
Average Humidity 72    
Maximum Humidity 79    
Minimum Humidity 65    
Precipitation  
Precipitation 0.00 in 0.16 in 3.35 in (1945)
Month to date precipitation 0.89 3.48  
Year to date precipitation 29.09 30.49  
Snow  
Snow 0.00 in - - ()
Month to date snowfall 0.0  
Since 1 June snowfall 0.0  
Since 1 July snowfall 0.0  
Snow Depth 0.00 in    
Sea Level Pressure  
Sea Level Pressure 30.09 in    
Wind  
Wind Speed 8 mph (East)    
Max Wind Speed 15 mph    
Max Gust Speed 19 mph    
Visibility 10 miles    
Events Rain , Thunderstorm    
T = Trace of Precipitation, MM = Missing Value Source: NWS Daily Summary

Daily Weather History Graph

Daily Weather History Graph

Search for Another Location

Airport or City:

Astronomy

Jul. 18, 2019 Rise Set
Actual Time 6:37 AM EDT 8:15 PM EDT
Civil Twilight 6:12 AM EDT 8:40 PM EDT
Nautical Twilight 5:41 AM EDT 9:11 PM EDT
Astronomical Twilight 5:09 AM EDT 9:43 PM EDT
Moon 9:45 PM EDT (7/18) 8:02 AM EDT (7/18)
Length of Visible Light 14h 28m
Length of Day
13h 37m
Full, 97% of the Moon is Illuminated
Jul 18
Full
Jul 24
Last Quarter
Jul 31
New
Aug 7
First Quarter
Aug 15
Full

Hourly Weather History & Observations

Time (EDT) Temp. Heat Index Dew Point Humidity Pressure Visibility Wind Dir Wind Speed Gust Speed Precip Events Conditions
12:53 AM 82.9 °F 89.4 °F 73.9 °F 74% 30.11 in 10.0 mi ESE 4.6 mph - N/A   Scattered Clouds
1:53 AM 82.9 °F 89.4 °F 73.9 °F 74% 30.08 in 10.0 mi ESE 8.1 mph - N/A   Scattered Clouds
2:53 AM 82.0 °F 87.9 °F 73.9 °F 76% 30.07 in 10.0 mi ESE 6.9 mph - N/A   Scattered Clouds
3:53 AM 82.0 °F 87.9 °F 73.9 °F 76% 30.05 in 10.0 mi ESE 10.4 mph - N/A   Scattered Clouds
4:53 AM 82.9 °F 89.4 °F 73.9 °F 74% 30.05 in 10.0 mi SE 8.1 mph - N/A   Scattered Clouds
5:53 AM 82.0 °F 87.9 °F 73.9 °F 76% 30.05 in 10.0 mi SE 10.4 mph - N/A   Scattered Clouds
6:53 AM 82.0 °F 87.9 °F 73.9 °F 76% 30.07 in 10.0 mi SSE 6.9 mph - N/A   Scattered Clouds
7:53 AM 84.0 °F 91.2 °F 73.9 °F 72% 30.10 in 10.0 mi SSE 9.2 mph - N/A   Mostly Cloudy
8:41 AM 86.0 °F 95.1 °F 75.0 °F 70% 30.10 in 10.0 mi SSE 10.4 mph - N/A Thunderstorm Thunderstorm
8:53 AM 86.0 °F 93.8 °F 73.9 °F 67% 30.11 in 10.0 mi SE 10.4 mph - N/A Thunderstorm Thunderstorm
9:11 AM 87.1 °F 96.3 °F 75.0 °F 67% 30.11 in 10.0 mi SE 12.7 mph - N/A   Scattered Clouds
9:53 AM 87.1 °F 95.4 °F 73.9 °F 65% 30.10 in 10.0 mi SE 11.5 mph - N/A   Scattered Clouds
10:18 AM 87.1 °F 95.4 °F 73.9 °F 65% 30.10 in 10.0 mi SE 13.8 mph - N/A Thunderstorm Thunderstorm
10:53 AM 87.1 °F 95.4 °F 73.9 °F 65% 30.12 in 10.0 mi Variable 6.9 mph - N/A Thunderstorm Thunderstorm
11:53 AM 84.9 °F 91.4 °F 73.0 °F 67% 30.12 in 10.0 mi West 9.2 mph - N/A Thunderstorm Thunderstorm
12:44 PM 82.9 °F 88.8 °F 73.0 °F 72% 30.13 in 10.0 mi NW 8.1 mph - N/A   Mostly Cloudy
12:53 PM 84.0 °F 90.2 °F 73.0 °F 69% 30.13 in 10.0 mi NW 6.9 mph - N/A   Mostly Cloudy
1:08 PM 84.9 °F 91.4 °F 73.0 °F 67% 30.12 in 10.0 mi NNW 12.7 mph - N/A Thunderstorm Thunderstorm
1:53 PM 84.0 °F 89.6 °F 72.0 °F 67% 30.12 in 10.0 mi NW 9.2 mph - N/A Thunderstorm Thunderstorm
1:59 PM 82.9 °F 88.0 °F 72.0 °F 69% 30.11 in 10.0 mi North 8.1 mph - N/A   Mostly Cloudy
2:05 PM 84.0 °F 89.6 °F 72.0 °F 67% 30.11 in 10.0 mi North 6.9 mph - N/A Thunderstorm Thunderstorm
2:41 PM 82.9 °F 88.8 °F 73.0 °F 72% 30.10 in 10.0 mi SW 6.9 mph - N/A   Mostly Cloudy
2:53 PM 82.9 °F 89.4 °F 73.9 °F 74% 30.10 in 10.0 mi NW 9.2 mph - N/A   Mostly Cloudy
3:53 PM 84.0 °F 90.2 °F 73.0 °F 69% 30.09 in 10.0 mi North 5.8 mph - N/A   Mostly Cloudy
4:53 PM 86.0 °F 93.8 °F 73.9 °F 67% 30.07 in 10.0 mi North 3.5 mph - N/A   Mostly Cloudy
5:53 PM 86.0 °F 93.0 °F 73.0 °F 65% 30.06 in 10.0 mi ENE 5.8 mph - N/A   Mostly Cloudy
6:53 PM 84.9 °F 91.4 °F 73.0 °F 67% 30.06 in 10.0 mi East 8.1 mph - N/A   Mostly Cloudy
7:53 PM 84.0 °F 91.2 °F 73.9 °F 72% 30.07 in 10.0 mi ENE 6.9 mph - N/A   Mostly Cloudy
8:53 PM 82.9 °F 90.2 °F 75.0 °F 77% 30.07 in 10.0 mi East 8.1 mph - N/A   Scattered Clouds
9:53 PM 82.9 °F 90.2 °F 75.0 °F 77% 30.08 in 10.0 mi East 8.1 mph - N/A   Scattered Clouds
10:53 PM 82.9 °F 90.2 °F 75.0 °F 77% 30.09 in 10.0 mi East 10.4 mph - N/A   Partly Cloudy
11:53 PM 82.9 °F 90.2 °F 75.0 °F 77% 30.10 in 10.0 mi East 9.2 mph - N/A   Partly Cloudy